Effective Sunday, March 17, 2024, the National Weather Service National Data Buoy Center will discontinue its Dial-A-Buoy Interactive Voice Response system. For more information, see Service Change Notice 24-06 (PDF).

Station WFPM4 - Whitefish Point, MI Image indicating link to RSS feed of recent meteorological observations for station WFPM4


Conditions at WFPM4 as of
(2:40 am EST)
0740 GMT on 02/29/2024:
     

Click on the graph icon in the table below to see a time series plot of the last five days of that observation.

5-day plot - Wind Direction Wind Direction (WDIR):NNE ( 20 deg true )
5-day plot - Wind Speed Wind Speed (WSPD): 9.9 kts
5-day plot - Wind Gust Wind Gust (GST): 15.0 kts
5-day plot - Air Temperature Air Temperature (ATMP): 8.6 °F
5-day plot - Wind Chill Wind Chill (CHILL): -6.3 °F
5-day plot - Wind Speed at 10 Meters Wind Speed at 10 meters (WSPD10M): 9.7 kts
5-day plot - Wind Speed at 20 Meters Wind Speed at 20 meters (WSPD20M): 11.7 kts
5-day plot -  Wind Speed, Wind Gust and Atmospheric Pressure Combined plot of Wind Speed, Gust, and Air Pressure
Previous observations
TIME
(EST)
5-day plot - Wind Direction
WDIR
 
5-day plot - Wind Speed
WSPD
kts
5-day plot - Wind Gust
GST
kts
5-day plot - Wave Height
WVHT
ft
5-day plot - Dominant Wave Period
DPD
sec
5-day plot - Average Wave Period
APD
sec
5-day plot - Mean Wave Direction
MWD
 
5-day plot - Atmospheric Pressure
PRES
in
5-day plot - Pressure Tendency
PTDY
in
5-day plot - Air Temperature
ATMP
°F
5-day plot - Water Temperature
WTMP
°F
5-day plot - Dew Point
DEWP
°F
5-day plot - Salinity
SAL
psu
5-day plot - Visibility
VIS
nmi
5-day plot - Tide (above MLLW)
TIDE
ft
2024-02-29 02:30 amNNE 8.9 21.0------ 8.6-----
2024-02-29 02:20 amNNE 8.0 15.0------ 9.0-----
2024-02-29 02:10 am N 9.9 18.1------ 9.0-----
2024-02-29 02:00 amNNE 13.0 18.1------ 9.3-----
2024-02-29 01:50 amNNE 8.9 18.1------ 9.3-----
2024-02-29 01:40 amNNE 9.9 21.0------ 9.3-----
2024-02-29 01:30 amNNE 8.9 18.1------ 10.0-----
2024-02-29 01:20 am N 8.0 20.0------ 10.4-----
2024-02-29 01:10 amNNE 8.9 17.1------ 10.8-----
2024-02-29 01:00 amNNE 14.0 21.0------ 11.3-----
2024-02-29 12:50 am N 11.1 20.0------ 11.8-----
2024-02-29 12:40 am N 9.9 20.0------ 12.0-----
2024-02-29 12:30 am N 12.0 22.9------ 12.0-----
2024-02-29 12:20 am N 7.0 17.1------ 12.9-----
2024-02-29 12:10 am N 11.1 19.0------ 12.9-----
2024-02-29 12:00 am N 8.9 22.0------ 13.5-----
2024-02-28 11:50 pm NW 9.9 20.0------ 13.8-----
2024-02-28 11:40 pmNNW 12.0 20.0------ 14.2-----
2024-02-28 11:30 pmNNW 9.9 24.1------ 14.2-----
2024-02-28 11:20 pmNNW 11.1 22.0------ 14.5-----
2024-02-28 11:10 pmNNW 14.0 28.0------ 14.7-----
2024-02-28 11:00 pmNNW 14.0 24.1------ 14.7-----
2024-02-28 10:50 pmNNW 14.0 25.1------ 14.7-----
2024-02-28 10:40 pmNNW 12.0 26.0------ 14.9-----
2024-02-28 10:30 pmNNW 12.0 22.9------ 15.1-----
2024-02-28 10:20 pmNNW 8.9 24.1------ 14.9-----
2024-02-28 10:10 pmNNW 13.0 24.1------ 14.9-----
2024-02-28 10:00 pm NW 8.9 28.0------ 14.7-----
2024-02-28 09:50 pmNNW 15.0 28.9------ 14.7-----
2024-02-28 09:40 pmNNW 17.1 27.0------ 14.9-----
2024-02-28 09:30 pm NW 14.0 26.0------ 14.5-----
2024-02-28 09:20 pmNNW 11.1 27.0------ 14.0-----
2024-02-28 09:10 pm NW 15.0 29.9------ 14.7-----
2024-02-28 09:00 pm NW 17.1 26.0------ 14.7-----
2024-02-28 08:50 pmNNW 18.1 28.0------ 14.5-----
2024-02-28 08:40 pmNNW 12.0 26.0------ 14.9-----
2024-02-28 08:30 pm NW 13.0 32.1------ 15.1-----
2024-02-28 08:20 pm NW 15.0 28.0------ 15.3-----
2024-02-28 08:10 pm NW 12.0 27.0------ 15.3-----
2024-02-28 08:00 pm NW 19.0 31.1------ 14.9-----
2024-02-28 07:50 pm NW 18.1 31.1------ 14.9-----
2024-02-28 07:40 pm NW 15.9 29.9------ 14.9-----
2024-02-28 07:30 pm NW 19.0 33.0------ 15.1-----
2024-02-28 07:20 pm NW 20.0 31.1------ 14.5-----
2024-02-28 07:10 pm NW 15.9 28.0------ 15.1-----
2024-02-28 07:00 pm NW 15.0 31.1------ 15.3-----
2024-02-28 06:50 pm NW 18.1 28.0------ 14.7-----
2024-02-28 06:40 pm NW 15.9 29.9------ 15.4-----
2024-02-28 06:30 pm NW 17.1 29.9------ 15.3-----
2024-02-28 06:20 pm NW 18.1 31.1------ 15.3-----
2024-02-28 06:10 pm NW 15.9 33.0------ 15.1-----
2024-02-28 06:00 pm NW 17.1 29.9------ 15.1-----
2024-02-28 05:50 pm NW 11.1 29.9------ 14.9-----
2024-02-28 05:40 pm NW 19.0 28.9------ 15.3-----
2024-02-28 05:30 pm NW 18.1 28.9------ 16.2-----
2024-02-28 05:20 pm NW 14.0 29.9------ 15.4-----
2024-02-28 05:10 pm NW 17.1 28.9------ 16.5-----
2024-02-28 05:00 pmNNW 12.0 28.0------ 16.9-----
2024-02-28 04:50 pm NW 15.0 28.0------ 16.5-----
2024-02-28 04:40 pm NW 18.1 27.0------ 16.2-----
2024-02-28 04:30 pmNNW 15.9 29.9------ 16.3-----
2024-02-28 04:20 pm NW 17.1 31.1------ 16.3-----
2024-02-28 04:10 pm NW 18.1 31.1------ 16.2-----
2024-02-28 04:00 pmNNW 20.0 31.1------ 16.5-----
2024-02-28 03:50 pmNNW 15.9 32.1------ 16.2-----
2024-02-28 03:40 pm NW 15.9 29.9------ 16.0-----
2024-02-28 03:30 pmNNW 15.9 29.9------ 16.3-----
2024-02-28 03:20 pm NW 18.1 31.1------ 15.3-----
2024-02-28 03:10 pmNNW 18.1 32.1------ 15.1-----
2024-02-28 03:00 pmNNW 18.1 32.1------ 14.7-----
2024-02-28 02:50 pmNNW 15.0 29.9------ 15.1-----
2024-02-28 02:40 pmNNW 14.0 27.0------ 14.2-----
2024-02-28 02:30 pm NW 15.0 35.0------ 14.4-----
2024-02-28 02:20 pmNNW 20.0 34.0------ 14.4-----
2024-02-28 02:10 pm NW 13.0 28.0------ 13.5-----
2024-02-28 02:00 pmNNW 15.0 26.0------ 14.4-----
2024-02-28 01:50 pmNNW 13.0 28.9------ 13.6-----
2024-02-28 01:40 pmNNW 13.0 27.0------ 13.8-----
2024-02-28 01:30 pmNNW 15.0 27.0------ 13.5-----
2024-02-28 01:20 pmNNW 15.9 27.0------ 13.3-----
2024-02-28 01:10 pmNNW 15.9 28.0------ 13.8-----
2024-02-28 01:00 pmNNW 12.0 27.0------ 13.8-----
2024-02-28 12:50 pmNNW 18.1 29.9------ 14.2-----
2024-02-28 12:40 pmNNW 18.1 28.9------ 13.1-----
2024-02-28 12:30 pmNNW 15.9 29.9------ 13.1-----
2024-02-28 12:20 pmNNW 15.9 29.9------ 12.6-----
2024-02-28 12:10 pmNNW 17.1 31.1------ 11.8-----
2024-02-28 12:00 pmNNW 14.0 31.1------ 12.0-----
2024-02-28 11:50 amNNW 19.0 27.0------ 11.8-----
2024-02-28 11:40 amNNW 18.1 29.9------ 11.8-----
2024-02-28 11:30 amNNW 18.1 31.1------ 11.3-----
2024-02-28 11:20 amNNW 17.1 33.0------ 10.9-----
2024-02-28 11:10 amNNW 17.1 32.1------ 11.1-----
2024-02-28 11:00 amNNW 22.0 32.1------ 10.4-----
2024-02-28 10:50 amNNW 15.9 33.0------ 9.7-----
2024-02-28 10:40 amNNW 20.0 31.1------ 9.5-----
2024-02-28 10:30 amNNW 15.0 31.1------ 9.3-----
2024-02-28 10:20 amNNW 20.0 33.0------ 8.8-----
2024-02-28 10:10 am N 17.1 32.1------ 9.0-----
2024-02-28 10:00 amNNW 21.0 28.9------ 8.8-----
2024-02-28 09:50 amNNW 15.9 29.9------ 9.1-----
2024-02-28 09:40 amNNW 18.1 35.0------ 9.1-----
2024-02-28 09:30 amNNW 17.1 29.9------ 9.9-----
2024-02-28 09:20 amNNW 19.0 33.0------ 9.3-----
2024-02-28 09:10 amNNW 20.0 33.0------ 9.5-----
2024-02-28 09:00 amNNW 18.1 29.9------ 9.7-----
2024-02-28 08:50 am N 13.0 27.0------ 9.9-----
2024-02-28 08:40 amNNW 18.1 32.1------ 10.2-----
2024-02-28 08:30 amNNW 19.0 32.1------ 10.6-----
2024-02-28 08:20 am N 15.9 28.9------ 11.1-----
2024-02-28 08:10 am N 17.1 31.1------ 11.5-----
2024-02-28 08:00 amNNW 17.1 31.1------ 11.5-----
2024-02-28 07:50 amNNW 18.1 28.0------ 11.8-----
2024-02-28 07:40 am N 17.1 28.9------ 12.4-----
2024-02-28 07:30 am N 15.0 29.9------ 13.3-----
2024-02-28 07:20 amNNW 18.1 29.9------ 13.6-----
2024-02-28 07:10 amNNW 15.9 29.9------ 13.6-----
2024-02-28 07:00 amNNW 18.1 31.1------ 14.2-----
2024-02-28 06:50 amNNW 20.0 32.1------ 14.5-----
2024-02-28 06:40 amNNW 22.0 33.0------ 15.3-----
2024-02-28 06:30 amNNW 15.0 33.0------ 15.8-----
2024-02-28 06:20 amNNW 20.0 28.0------ 16.0-----
2024-02-28 06:10 amNNW 15.9 31.1------ 16.5-----
2024-02-28 06:00 amNNW 17.1 29.9------ 17.2-----
2024-02-28 05:50 amNNW 20.0 31.1------ 18.0-----
2024-02-28 05:40 am NW 17.1 28.0------ 18.5-----
2024-02-28 05:30 amNNW 15.0 29.9------ 18.9-----
2024-02-28 05:20 amNNW 15.9 29.9------ 19.4-----
2024-02-28 05:10 amNNW 14.0 26.0------ 19.9-----
2024-02-28 05:00 amNNW 14.0 28.0------ 20.3-----
2024-02-28 04:50 amNNW 14.0 25.1------ 21.0-----
2024-02-28 04:40 amNNW 19.0 29.9------ 21.2-----
2024-02-28 04:30 amNNW 20.0 28.9------ 21.6-----
2024-02-28 04:20 amNNW 14.0 22.0------ 22.5-----
2024-02-28 04:10 amNNW 15.9 26.0------ 23.0-----
2024-02-28 04:00 amNNW 15.0 28.0------ 23.5-----
2024-02-28 03:50 am NW 15.0 26.0------ 24.3-----
2024-02-28 03:40 amNNW 18.1 28.9------ 24.6-----
2024-02-28 03:30 amNNW 15.0 22.9------ 25.3-----
2024-02-28 03:20 am NW 14.0 22.0------ 26.1-----
2024-02-28 03:10 amNNW 14.0 26.0------ 26.6-----
2024-02-28 03:00 amNNW 11.1 21.0------ 27.3-----
2024-02-28 02:50 am NW 13.0 20.0------ 27.9-----